Location: Newark
(25.6108°S, 54.5803°W)
Time: 10:16:28
(UTC+00:00)

deb Explorer IX - Pass Details

Date: 01 November 2020
Orbit: 538 x 1104 km, 38.8° (Epoch: 23 November)

Event Time Altitude Azimuth Distance (km) Brightness Sun altitude
Rises 19:40:58 0° 270° (W) 3,626 ? 28.8°
Reaches altitude 10° 19:44:06 10° 260° (W) 2,585 ? 28.1°
Maximum altitude 19:49:23 30° 200° (SSW) 1,442 ? 26.9°
Drops below altitude 10° 19:54:01 10° 139° (SE) 2,242 ? 25.9°
Sets 19:56:33 0° 127° (SE) 3,071 ? 25.3°
